STARLINK-31597, 59464

Orbit data source: Space-Track

STARLINK-31597, 59464 is a payload satellite owned by SpaceX/Seattle (US) in LEO that was launched on Wed, 10 Apr 2024 UTC via an FALCON 9 launch vehicle from the Air Force Eastern Test Range (AFETR). Payload-class satellites include a variety of spacecraft equipped with specific instruments for various scientific and technological missions. These include communications satellites like Starlink; space stations such as the ISS; scientific satellites like the Hubble; Earth observation satellites from companies like Planet Labs, Umbra, and HawkEye 360; GPS; miniature CubeSats for education and research; and military/defense satellites.

Loading next visibility...
Identifier
59464, 2024-068K
Orbit
LEO
Country
Flag of USUS
Related business
Manufacturer
SpaceX/Seattle
Mission
Operational Commercial Communications
Bus & Motor
STARLINK V2M, Unknown motor
Mass
730 kg wet, ~700 kg dry
Launch date (UTC)
2024-04-10 (2 years ago)
Launch vehicle
FALCON 9
Launch site
Air Force Eastern Test Range (AFETR)
Object type
Payload
Rocket body
Debris
Shape & HBR
Box + 2 Pan, 17.7 m
Radar Cross Section
33.884 m², Large (>1 m²)

Expand to show TLE details & history
Last TLE update: 2 days ago

TLE from 2 days ago
0 STARLINK-31597
1 59464U 24068K   26171.02743083  .00000777  00000-0  37768-4 0  9998
2 59464  42.9993 176.5891 0001456 270.6791  89.3894 15.27579956124128
Epoch: 2026-06-20T00:39Z
TLE epoch observation values (Epoch: 2026-06-20T00:39:30.023Z)
Latitude
-0.00001°
Longitude
-101.53396°
Altitude
482.814 km
Speed
7.626 km/s
True Right ascension
11h 46m 21s
True Declination
0° 00' 00"
Sunlit
Object was in daylight at epoch
Visualization orbit readout
Latitude
Unknown
Longitude
Unknown
Altitude
Unknown
Speed
Unknown
Apparent Right ascension
Unknown
Apparent Declination
Unknown
Sunlit
N/A
Visualization observer readout
Local Sidereal Time
21:27:17
Azimuth
Unknown
Elevation
Unknown
Doppler factor
Unknown
Orbital elements
Apogee altitude
485.994 km
Perigee altitude
483.995 km
Semi-major axis
6,863.132 km
Eccentricity
0.00015
Inclination
42.9993°
RAAN
176.5891°
Arg. of periapsis
270.6791°
True anomaly
89.40608°
Mean anomaly
89.3894°
Eccentric anomaly
89.39774°
Mean motion
3.81733 °/min
Orbital period
94.31 mins
BSTAR
0.000037768
Loading maneuver chart data...
Computing Atmospheric mass density...
Loading historical data...
Loading historical data...
Loading historical data...
Loading historical data...
Loading historical data...
Loading historical data...
Loading historical data...

Documentation

Showing up to 5 results
|